Retour au catalogue

ONEWEB-0359

ActifCommunicationsPO
NORAD 49285·PAYLOAD·🇬🇧 United Kingdom

Lancé Oct 14, 2021 depuis Vostochny Cosmodrome

Loading…

Prochains Passages (prochaines 24 heures)

TLE

FraisSource: CelesTrak SupGP

Époque: Sep 14, 2026, 07:01 UTC

1 49285C 21090G   26257.29289769 -.00000265  00000+0 -65336-3 0  2571
2 49285  87.9139 256.6599 0002014  95.9323  25.1659 13.20769272    15

Suivez ONEWEB-0359 en temps réel avec AllMySat

Download on the App Store